When you browse on this site, cookies collect data to enhance your experience and personalize the content and advertising you see.
Visit our Privacy Policy to learn more. By continuing to use the site, you agree to this use of cookies and data.

Hourly Weather Finevo

Today, 5 July, Sunday

Time Temperature Precipitation Wind Pressure Humidity
00:00 +15°C° 0 mm 1 mps 741 mmHg 82%
01:00 +15°C° 0 mm 1 mps 741 mmHg 81%
02:00 +15°C° 0 mm 1 mps 741 mmHg 80%
03:00 +15°C° 0 mm 2 mps 741 mmHg 81%
04:00 +15°C° 0 mm 2 mps 741 mmHg 82%
05:00 +16°C° 0 mm 2 mps 741 mmHg 82%
06:00 +17°C° 0 mm 3 mps 741 mmHg 75%
07:00 +19°C° 0 mm 3 mps 741 mmHg 67%
08:00 +21°C° 0 mm 4 mps 740 mmHg 60%
09:00 +22°C° 0 mm 4 mps 740 mmHg 56%
10:00 +25°C° 0 mm 4 mps 740 mmHg 53%
11:00 +26°C° 0 mm 4 mps 740 mmHg 49%
12:00 +25°C° 0.1 mm 4 mps 740 mmHg 54%
13:00 +25°C° 0.1 mm 4 mps 740 mmHg 59%
14:00 +23°C° 0.1 mm 4 mps 739 mmHg 64%
15:00 +23°C° 0.2 mm 4 mps 739 mmHg 70%
16:00 +22°C° 0.2 mm 3 mps 739 mmHg 76%
17:00 +21°C° 0.2 mm 3 mps 739 mmHg 82%
18:00 +20°C° 0 mm 2 mps 739 mmHg 84%
19:00 +20°C° 0 mm 2 mps 739 mmHg 86%
20:00 +19°C° 0 mm 2 mps 738 mmHg 89%
21:00 +18°C° 0 mm 2 mps 738 mmHg 90%
22:00 +18°C° 0 mm 2 mps 738 mmHg 92%
23:00 +18°C° 0 mm 3 mps 738 mmHg 94%

Tomorrow, 6 July, Monday

Time Temperature Precipitation Wind Pressure Humidity
00:00 +18°C° 0 mm 3 mps 738 mmHg 94%
01:00 +18°C° 0 mm 3 mps 738 mmHg 94%
02:00 +18°C° 0 mm 3 mps 738 mmHg 94%
03:00 +18°C° 0 mm 3 mps 737 mmHg 94%
04:00 +18°C° 0 mm 4 mps 737 mmHg 93%
05:00 +18°C° 0 mm 4 mps 737 mmHg 92%
06:00 +19°C° 0 mm 4 mps 737 mmHg 88%
07:00 +20°C° 0 mm 4 mps 737 mmHg 83%
08:00 +21°C° 0 mm 4 mps 737 mmHg 79%
09:00 +22°C° 0.1 mm 4 mps 738 mmHg 77%
10:00 +22°C° 0.1 mm 4 mps 738 mmHg 76%
11:00 +23°C° 0.1 mm 4 mps 738 mmHg 74%
12:00 +23°C° 0.2 mm 4 mps 737 mmHg 72%
13:00 +25°C° 0.2 mm 4 mps 737 mmHg 69%
14:00 +26°C° 0.2 mm 4 mps 737 mmHg 66%
15:00 +25°C° 0.2 mm 4 mps 737 mmHg 70%
16:00 +25°C° 0.2 mm 3 mps 737 mmHg 74%
17:00 +24°C° 0.2 mm 3 mps 737 mmHg 78%
18:00 +23°C° 0.1 mm 2 mps 737 mmHg 81%
19:00 +22°C° 0.1 mm 1 mps 737 mmHg 84%
20:00 +21°C° 0.1 mm 1 mps 737 mmHg 87%
21:00 +21°C° 0 mm 1 mps 738 mmHg 88%
22:00 +21°C° 0 mm 1 mps 738 mmHg 88%
23:00 +20°C° 0 mm 1 mps 738 mmHg 89%

Day after tomorrow, 7 July, Tuesday

Time Temperature Precipitation Wind Pressure Humidity
00:00 +20°C° 0.1 mm 1 mps 738 mmHg 89%
01:00 +17°C° 0.1 mm 0 mps 738 mmHg 89%
02:00 +17°C° 0.1 mm 0 mps 738 mmHg 89%
03:00 +19°C° 0.1 mm 1 mps 738 mmHg 89%
04:00 +19°C° 0.1 mm 1 mps 738 mmHg 89%
05:00 +19°C° 0.1 mm 1 mps 738 mmHg 89%
06:00 +18°C° 1.9 mm 1 mps 738 mmHg 92%
07:00 +16°C° 1.9 mm 1 mps 738 mmHg 94%
08:00 +16°C° 1.9 mm 2 mps 738 mmHg 97%
09:00 +16°C° 1.3 mm 2 mps 738 mmHg 97%
10:00 +16°C° 1.3 mm 2 mps 738 mmHg 97%
11:00 +15°C° 1.3 mm 1 mps 739 mmHg 97%
12:00 +16°C° 0.4 mm 1 mps 739 mmHg 96%
13:00 +16°C° 0.4 mm 1 mps 739 mmHg 95%
14:00 +16°C° 0.4 mm 1 mps 739 mmHg 94%
15:00 +18°C° 0 mm 1 mps 739 mmHg 88%
16:00 +18°C° 0 mm 1 mps 740 mmHg 83%
17:00 +19°C° 0 mm 1 mps 740 mmHg 78%
18:00 +18°C° 0 mm 1 mps 740 mmHg 80%
19:00 +16°C° 0 mm 1 mps 740 mmHg 82%
20:00 +15°C° 0 mm 1 mps 740 mmHg 84%
21:00 +14°C° 0 mm 1 mps 740 mmHg 86%
22:00 +14°C° 0 mm 1 mps 740 mmHg 88%
23:00 +13°C° 0 mm 1 mps 741 mmHg 90%

8 July, Wednesday

Time Temperature Precipitation Wind Pressure Humidity
00:00 +13°C° 0 mm 1 mps 741 mmHg 89%
01:00 +13°C° 0 mm 1 mps 741 mmHg 88%
02:00 +13°C° 0 mm 1 mps 741 mmHg 88%
03:00 +13°C° 0 mm 1 mps 741 mmHg 87%
04:00 +14°C° 0 mm 1 mps 742 mmHg 86%
05:00 +14°C° 0 mm 1 mps 742 mmHg 85%
06:00 +16°C° 0 mm 1 mps 742 mmHg 79%
07:00 +18°C° 0 mm 1 mps 742 mmHg 73%
08:00 +19°C° 0 mm 1 mps 742 mmHg 67%
09:00 +21°C° 0 mm 1 mps 742 mmHg 60%
10:00 +22°C° 0 mm 1 mps 742 mmHg 53%
11:00 +24°C° 0 mm 1 mps 742 mmHg 46%
12:00 +24°C° 0 mm 1 mps 742 mmHg 44%
13:00 +25°C° 0 mm 1 mps 741 mmHg 42%
14:00 +25°C° 0 mm 1 mps 741 mmHg 39%
15:00 +25°C° 0 mm 1 mps 741 mmHg 41%
16:00 +25°C° 0 mm 1 mps 741 mmHg 43%
17:00 +24°C° 0 mm 1 mps 740 mmHg 45%
18:00 +22°C° 0 mm 1 mps 740 mmHg 53%
19:00 +20°C° 0 mm 1 mps 740 mmHg 61%
20:00 +18°C° 0 mm 1 mps 740 mmHg 69%
21:00 +16°C° 0 mm 1 mps 739 mmHg 70%
22:00 +15°C° 0 mm 1 mps 739 mmHg 70%
23:00 +14°C° 0 mm 1 mps 739 mmHg 71%

9 July, Thursday

Time Temperature Precipitation Wind Pressure Humidity
00:00 +14°C° 0 mm 1 mps 739 mmHg 71%
01:00 +14°C° 0 mm 1 mps 739 mmHg 71%
02:00 +14°C° 0 mm 1 mps 739 mmHg 71%
03:00 +14°C° 0 mm 1 mps 739 mmHg 75%
04:00 +14°C° 0 mm 1 mps 739 mmHg 78%
05:00 +14°C° 0 mm 2 mps 738 mmHg 81%
06:00 +15°C° 0 mm 2 mps 738 mmHg 77%
07:00 +16°C° 0 mm 2 mps 738 mmHg 73%
08:00 +18°C° 0 mm 2 mps 738 mmHg 69%
09:00 +19°C° 0.1 mm 2 mps 738 mmHg 64%
10:00 +20°C° 0.1 mm 2 mps 738 mmHg 59%
11:00 +21°C° 0.1 mm 3 mps 738 mmHg 54%
12:00 +22°C° 0.2 mm 3 mps 738 mmHg 52%
13:00 +22°C° 0.2 mm 3 mps 737 mmHg 50%
14:00 +22°C° 0.2 mm 3 mps 737 mmHg 48%
15:00 +21°C° 0.5 mm 3 mps 737 mmHg 60%
16:00 +20°C° 0.5 mm 3 mps 737 mmHg 71%
17:00 +18°C° 0.5 mm 3 mps 737 mmHg 83%
18:00 +17°C° 0.1 mm 3 mps 737 mmHg 84%
19:00 +16°C° 0.1 mm 3 mps 737 mmHg 85%
20:00 +14°C° 0.1 mm 3 mps 737 mmHg 86%
21:00 +13°C° 0 mm 3 mps 737 mmHg 87%
22:00 +12°C° 0 mm 3 mps 737 mmHg 89%
23:00 +11°C° 0 mm 3 mps 737 mmHg 91%

10 July, Friday

Time Temperature Precipitation Wind Pressure Humidity
00:00 +11°C° 0 mm 3 mps 738 mmHg 91%
01:00 +11°C° 0 mm 3 mps 738 mmHg 91%
02:00 +11°C° 0 mm 3 mps 738 mmHg 91%
03:00 +12°C° 0 mm 4 mps 738 mmHg 89%
04:00 +12°C° 0 mm 4 mps 739 mmHg 88%
05:00 +12°C° 0 mm 4 mps 739 mmHg 87%
06:00 +13°C° 0 mm 4 mps 739 mmHg 85%
07:00 +13°C° 0 mm 4 mps 739 mmHg 83%
08:00 +13°C° 0 mm 4 mps 740 mmHg 81%
09:00 +14°C° 0 mm 4 mps 740 mmHg 76%
10:00 +17°C° 0 mm 4 mps 741 mmHg 70%
11:00 +18°C° 0 mm 3 mps 741 mmHg 65%
12:00 +19°C° 0 mm 4 mps 741 mmHg 60%
13:00 +20°C° 0 mm 4 mps 741 mmHg 54%
14:00 +22°C° 0 mm 4 mps 741 mmHg 49%
15:00 +22°C° 0 mm 4 mps 741 mmHg 49%
16:00 +21°C° 0 mm 4 mps 741 mmHg 48%
17:00 +21°C° 0 mm 3 mps 742 mmHg 48%
18:00 +19°C° 0 mm 3 mps 742 mmHg 55%
19:00 +18°C° 0 mm 2 mps 742 mmHg 62%
20:00 +16°C° 0 mm 1 mps 742 mmHg 70%
21:00 +15°C° 0 mm 1 mps 742 mmHg 71%
22:00 +13°C° 0 mm 1 mps 743 mmHg 72%
23:00 +12°C° 0 mm 1 mps 743 mmHg 73%
Show more